When you browse on this site, cookies collect data to enhance your experience and personalize the content and advertising you see.
Visit our Privacy Policy to learn more. By continuing to use the site, you agree to this use of cookies and data.
  • In Hungary
  • List of Countries
  • For 7 days
  • Water Temperature
  • Satellite Maps
  • Weather Map
  • News
  • Weather Widgets
  • user-avatar
    Login

    Hourly Weather Ozod

    Today, 18 December, Tuesday

    Time Temperature Precipitation Wind Pressure Humidity
    00:00 +9°C° 0.2 mm 1 mps 727 mmHg 54%
    01:00 +8°C° 0.2 mm 1 mps 726 mmHg 57%
    02:00 +8°C° 0.2 mm 1 mps 726 mmHg 59%
    03:00 +8°C° 0.4 mm 1 mps 727 mmHg 63%
    04:00 +7°C° 0.4 mm 1 mps 727 mmHg 66%
    05:00 +7°C° 0 mm 1 mps 726 mmHg 72%
    06:00 +7°C° 0.2 mm 1 mps 727 mmHg 73%
    07:00 +7°C° 0.2 mm 1 mps 727 mmHg 74%
    08:00 +7°C° 0.2 mm 1 mps 727 mmHg 75%
    09:00 +7°C° 0.1 mm 1 mps 727 mmHg 72%
    10:00 +7°C° 0.1 mm 2 mps 727 mmHg 69%
    11:00 +8°C° 0 mm 2 mps 727 mmHg 65%
    12:00 +8°C° 0 mm 2 mps 726 mmHg 64%
    13:00 +9°C° 0 mm 1 mps 726 mmHg 62%
    14:00 +10°C° 0 mm 1 mps 726 mmHg 61%
    15:00 +9°C° 0.1 mm 1 mps 726 mmHg 64%
    16:00 +9°C° 0.1 mm 1 mps 727 mmHg 68%
    17:00 +8°C° 0 mm 1 mps 727 mmHg 71%
    18:00 +8°C° 0.1 mm 1 mps 727 mmHg 72%
    19:00 +8°C° 0.1 mm 1 mps 726 mmHg 72%
    20:00 +7°C° 0.1 mm 2 mps 726 mmHg 73%
    21:00 +8°C° 0.1 mm 1 mps 726 mmHg 74%
    22:00 +7°C° 0.1 mm 1 mps 725 mmHg 74%
    23:00 +7°C° 0.1 mm 1 mps 725 mmHg 75%

    Tomorrow, 19 December, Wednesday

    Time Temperature Precipitation Wind Pressure Humidity
    00:00 +7°C° 0.1 mm 1 mps 725 mmHg 76%
    01:00 +7°C° 0.1 mm 1 mps 724 mmHg 76%
    02:00 +7°C° 0.1 mm 1 mps 724 mmHg 77%
    03:00 +7°C° 0.3 mm 1 mps 724 mmHg 79%
    04:00 +6°C° 0.3 mm 0 mps 724 mmHg 80%
    05:00 +6°C° 0.3 mm 0 mps 724 mmHg 82%
    06:00 +5°C° 0.4 mm 0 mps 724 mmHg 82%
    07:00 +5°C° 0.4 mm 0 mps 724 mmHg 83%
    08:00 +5°C° 0.4 mm 0 mps 724 mmHg 84%
    09:00 +6°C° 0.3 mm 0 mps 724 mmHg 83%
    10:00 +6°C° 0.3 mm 0 mps 724 mmHg 81%
    11:00 +7°C° 0.3 mm 0 mps 724 mmHg 80%
    12:00 +8°C° 0.3 mm 1 mps 724 mmHg 81%
    13:00 +8°C° 0.3 mm 1 mps 724 mmHg 82%
    14:00 +8°C° 0.3 mm 1 mps 724 mmHg 84%
    15:00 +7°C° 0.4 mm 1 mps 725 mmHg 86%
    16:00 +7°C° 0.4 mm 1 mps 725 mmHg 88%
    17:00 +7°C° 0.4 mm 1 mps 726 mmHg 90%
    18:00 +7°C° 0.5 mm 1 mps 726 mmHg 91%
    19:00 +7°C° 0.5 mm 1 mps 727 mmHg 91%
    20:00 +7°C° 0.5 mm 1 mps 727 mmHg 92%
    21:00 +7°C° 0.5 mm 1 mps 728 mmHg 92%
    22:00 +6°C° 0.5 mm 2 mps 728 mmHg 92%
    23:00 +6°C° 0.5 mm 2 mps 728 mmHg 92%

    Day after tomorrow, 20 December, Thursday

    Time Temperature Precipitation Wind Pressure Humidity
    00:00 +6°C° 0.4 mm 2 mps 729 mmHg 91%
    01:00 +6°C° 0.4 mm 2 mps 729 mmHg 90%
    02:00 +5°C° 0.4 mm 2 mps 729 mmHg 89%
    03:00 +5°C° 0.4 mm 2 mps 730 mmHg 89%
    04:00 +5°C° 0.4 mm 2 mps 730 mmHg 88%
    05:00 +6°C° 0.4 mm 1 mps 730 mmHg 88%
    06:00 +6°C° 0.4 mm 1 mps 731 mmHg 88%
    07:00 +6°C° 0.4 mm 1 mps 731 mmHg 88%
    08:00 +6°C° 0.4 mm 1 mps 732 mmHg 88%
    09:00 +6°C° 0.4 mm 1 mps 732 mmHg 86%
    10:00 +6°C° 0.4 mm 1 mps 732 mmHg 84%
    11:00 +6°C° 0.4 mm 1 mps 732 mmHg 81%
    12:00 +6°C° 0.3 mm 1 mps 731 mmHg 81%
    13:00 +6°C° 0.3 mm 1 mps 731 mmHg 80%
    14:00 +6°C° 0.3 mm 1 mps 731 mmHg 80%
    15:00 +6°C° 0.2 mm 1 mps 731 mmHg 81%
    16:00 +6°C° 0.2 mm 1 mps 732 mmHg 83%
    17:00 +6°C° 0.2 mm 1 mps 732 mmHg 84%
    18:00 +6°C° 0.2 mm 1 mps 732 mmHg 85%
    19:00 +5°C° 0.2 mm 1 mps 733 mmHg 86%
    20:00 +5°C° 0.2 mm 1 mps 733 mmHg 88%
    21:00 +5°C° 0 mm 1 mps 733 mmHg 87%
    22:00 +5°C° 0 mm 1 mps 733 mmHg 86%
    23:00 +4°C° 0 mm 1 mps 733 mmHg 86%

    21 December, Friday

    Time Temperature Precipitation Wind Pressure Humidity
    00:00 +3°C° 0 mm 2 mps 733 mmHg 83%
    01:00 +3°C° 0 mm 2 mps 733 mmHg 81%
    02:00 +3°C° 0 mm 2 mps 733 mmHg 78%
    03:00 +3°C° 0 mm 2 mps 733 mmHg 75%
    04:00 +2°C° 0 mm 2 mps 733 mmHg 72%
    05:00 +2°C° 0 mm 2 mps 733 mmHg 69%
    06:00 +2°C° 0 mm 2 mps 733 mmHg 68%
    07:00 +2°C° 0 mm 2 mps 732 mmHg 66%
    08:00 +2°C° 0 mm 2 mps 732 mmHg 64%
    09:00 +4°C° 0 mm 2 mps 731 mmHg 60%
    10:00 +5°C° 0 mm 2 mps 731 mmHg 55%
    11:00 +7°C° 0 mm 2 mps 730 mmHg 51%
    12:00 +7°C° 0 mm 2 mps 729 mmHg 49%
    13:00 +8°C° 0 mm 2 mps 728 mmHg 48%
    14:00 +9°C° 0 mm 2 mps 727 mmHg 46%
    15:00 +9°C° 0 mm 1 mps 727 mmHg 49%
    16:00 +8°C° 0 mm 1 mps 727 mmHg 51%
    17:00 +7°C° 0 mm 1 mps 728 mmHg 54%
    18:00 +5°C° 0 mm 2 mps 727 mmHg 53%
    19:00 +5°C° 0 mm 2 mps 727 mmHg 53%
    20:00 +5°C° 0 mm 2 mps 727 mmHg 53%
    21:00 +5°C° 0 mm 2 mps 727 mmHg 52%
    22:00 +5°C° 0 mm 2 mps 726 mmHg 52%
    23:00 +5°C° 0 mm 2 mps 726 mmHg 52%

    22 December, Saturday

    Time Temperature Precipitation Wind Pressure Humidity
    00:00 +5°C° 0 mm 2 mps 725 mmHg 52%
    01:00 +5°C° 0 mm 2 mps 725 mmHg 52%
    02:00 +6°C° 0 mm 1 mps 725 mmHg 52%
    03:00 +6°C° 0 mm 1 mps 725 mmHg 53%
    04:00 +6°C° 0 mm 1 mps 724 mmHg 53%
    05:00 +6°C° 0 mm 1 mps 724 mmHg 53%
    06:00 +6°C° 0 mm 1 mps 724 mmHg 54%
    07:00 +6°C° 0 mm 1 mps 724 mmHg 54%
    08:00 +6°C° 0 mm 1 mps 724 mmHg 55%
    09:00 +7°C° 0 mm 1 mps 724 mmHg 53%
    10:00 +8°C° 0 mm 1 mps 724 mmHg 52%
    11:00 +9°C° 0 mm 1 mps 724 mmHg 50%
    12:00 +9°C° 0 mm 1 mps 724 mmHg 49%
    13:00 +10°C° 0 mm 1 mps 723 mmHg 48%
    14:00 +10°C° 0 mm 1 mps 723 mmHg 47%
    15:00 +9°C° 0 mm 1 mps 723 mmHg 49%
    16:00 +9°C° 0 mm 1 mps 724 mmHg 51%
    17:00 +8°C° 0 mm 1 mps 724 mmHg 53%
    18:00 +8°C° 0 mm 1 mps 724 mmHg 54%
    19:00 +8°C° 0 mm 1 mps 725 mmHg 54%
    20:00 +7°C° 0 mm 1 mps 725 mmHg 55%
    21:00 +7°C° 0 mm 1 mps 725 mmHg 56%
    22:00 +7°C° 0 mm 1 mps 724 mmHg 57%
    23:00 +6°C° 0 mm 1 mps 724 mmHg 58%

    23 December, Sunday

    Time Temperature Precipitation Wind Pressure Humidity
    00:00 +6°C° 0 mm 1 mps 724 mmHg 58%
    01:00 +6°C° 0 mm 1 mps 724 mmHg 59%
    02:00 +6°C° 0 mm 1 mps 724 mmHg 59%
    03:00 +6°C° 0 mm 1 mps 724 mmHg 59%
    04:00 +5°C° 0 mm 1 mps 724 mmHg 60%
    05:00 +5°C° 0 mm 1 mps 724 mmHg 60%
    06:00 +5°C° 0 mm 1 mps 724 mmHg 60%
    07:00 +5°C° 0 mm 1 mps 724 mmHg 60%
    08:00 +5°C° 0 mm 1 mps 724 mmHg 60%
    09:00 +6°C° 0 mm 1 mps 724 mmHg 58%
    10:00 +7°C° 0 mm 1 mps 724 mmHg 56%
    11:00 +8°C° 0 mm 1 mps 724 mmHg 54%
    12:00 +9°C° 0 mm 1 mps 724 mmHg 53%
    13:00 +9°C° 0 mm 1 mps 724 mmHg 52%
    14:00 +10°C° 0 mm 1 mps 724 mmHg 51%
    15:00 +9°C° 0 mm 1 mps 724 mmHg 54%
    16:00 +8°C° 0 mm 1 mps 724 mmHg 56%
    17:00 +7°C° 0 mm 1 mps 725 mmHg 59%
    18:00 +7°C° 0 mm 1 mps 725 mmHg 60%
    19:00 +7°C° 0 mm 1 mps 725 mmHg 61%
    20:00 +6°C° 0 mm 1 mps 726 mmHg 62%
    21:00 +6°C° 0 mm 1 mps 726 mmHg 63%
    22:00 +6°C° 0 mm 1 mps 726 mmHg 64%
    23:00 +6°C° 0 mm 1 mps 726 mmHg 65%
    Show more